When you browse on this site, cookies collect data to enhance your experience and personalize the content and advertising you see.
Visit our Privacy Policy to learn more. By continuing to use the site, you agree to this use of cookies and data.
  • en France
  • Liste des pays
  • À 7 jours
  • Température de l'eau
  • Carte météo
  • Widgets météo
  • user-avatar
    Se connecter

    Météo par heure à Louboumbashi

    Ce jour, 6 Décembre, Vendredi

    Heure Température Précipitation Vent Pression Humidité
    00:00 +25°C° 0 mm 5 m/s 720 mmHg 19%
    01:00 +23°C° 0 mm 6 m/s 719 mmHg 20%
    02:00 +22°C° 0 mm 6 m/s 719 mmHg 21%
    03:00 +22°C° 0 mm 6 m/s 720 mmHg 21%
    04:00 +21°C° 0 mm 6 m/s 720 mmHg 22%
    05:00 +21°C° 0 mm 6 m/s 720 mmHg 22%
    06:00 +22°C° 0 mm 6 m/s 721 mmHg 22%
    07:00 +22°C° 0 mm 6 m/s 721 mmHg 21%
    08:00 +23°C° 0 mm 7 m/s 721 mmHg 20%
    09:00 +26°C° 0 mm 7 m/s 722 mmHg 18%
    10:00 +29°C° 0 mm 7 m/s 722 mmHg 15%
    11:00 +32°C° 0 mm 7 m/s 722 mmHg 13%
    12:00 +33°C° 0 mm 6 m/s 721 mmHg 13%
    13:00 +35°C° 0 mm 5 m/s 720 mmHg 12%
    14:00 +36°C° 0 mm 5 m/s 719 mmHg 12%
    15:00 +35°C° 0 mm 4 m/s 719 mmHg 13%
    16:00 +35°C° 0 mm 4 m/s 719 mmHg 13%
    17:00 +35°C° 0 mm 4 m/s 719 mmHg 14%
    18:00 +33°C° 0 mm 4 m/s 719 mmHg 15%
    19:00 +32°C° 0 mm 4 m/s 719 mmHg 16%
    20:00 +29°C° 0 mm 4 m/s 719 mmHg 17%
    21:00 +29°C° 0 mm 5 m/s 719 mmHg 18%
    22:00 +28°C° 0 mm 6 m/s 719 mmHg 18%
    23:00 +27°C° 0 mm 8 m/s 720 mmHg 18%

    Demain, 7 Décembre, Samedi

    Heure Température Précipitation Vent Pression Humidité
    00:00 +27°C° 0 mm 7 m/s 719 mmHg 20%
    01:00 +26°C° 0 mm 7 m/s 719 mmHg 21%
    02:00 +24°C° 0 mm 7 m/s 719 mmHg 23%
    03:00 +24°C° 0 mm 7 m/s 719 mmHg 23%
    04:00 +23°C° 0 mm 7 m/s 720 mmHg 23%
    05:00 +23°C° 0 mm 7 m/s 720 mmHg 24%
    06:00 +23°C° 0 mm 8 m/s 720 mmHg 23%
    07:00 +24°C° 0 mm 9 m/s 720 mmHg 22%
    08:00 +24°C° 0 mm 9 m/s 721 mmHg 22%
    09:00 +27°C° 0 mm 9 m/s 721 mmHg 20%
    10:00 +31°C° 0 mm 9 m/s 721 mmHg 19%
    11:00 +33°C° 0 mm 8 m/s 721 mmHg 17%
    12:00 +34°C° 0 mm 8 m/s 720 mmHg 16%
    13:00 +35°C° 0 mm 7 m/s 720 mmHg 15%
    14:00 +36°C° 0 mm 6 m/s 719 mmHg 13%
    15:00 +36°C° 0 mm 6 m/s 719 mmHg 14%
    16:00 +35°C° 0 mm 6 m/s 718 mmHg 14%
    17:00 +35°C° 0 mm 6 m/s 718 mmHg 14%
    18:00 +33°C° 0 mm 5 m/s 718 mmHg 16%
    19:00 +32°C° 0 mm 5 m/s 719 mmHg 17%
    20:00 +29°C° 0 mm 4 m/s 719 mmHg 19%
    21:00 +28°C° 0 mm 5 m/s 719 mmHg 19%
    22:00 +28°C° 0 mm 6 m/s 719 mmHg 18%
    23:00 +27°C° 0 mm 7 m/s 719 mmHg 17%

    Après-demain, 8 Décembre, Dimanche

    Heure Température Précipitation Vent Pression Humidité
    00:00 +26°C° 0 mm 7 m/s 719 mmHg 19%
    01:00 +26°C° 0 mm 7 m/s 719 mmHg 20%
    02:00 +24°C° 0 mm 7 m/s 719 mmHg 21%
    03:00 +24°C° 0 mm 7 m/s 719 mmHg 21%
    04:00 +23°C° 0 mm 7 m/s 719 mmHg 21%
    05:00 +23°C° 0 mm 7 m/s 719 mmHg 21%
    06:00 +23°C° 0 mm 8 m/s 720 mmHg 21%
    07:00 +23°C° 0 mm 8 m/s 720 mmHg 21%
    08:00 +23°C° 0 mm 9 m/s 721 mmHg 21%
    09:00 +26°C° 0 mm 9 m/s 721 mmHg 20%
    10:00 +28°C° 0 mm 9 m/s 721 mmHg 18%
    11:00 +31°C° 0 mm 8 m/s 721 mmHg 17%
    12:00 +32°C° 0 mm 8 m/s 720 mmHg 16%
    13:00 +33°C° 0 mm 8 m/s 720 mmHg 16%
    14:00 +34°C° 0 mm 7 m/s 719 mmHg 15%
    15:00 +34°C° 0 mm 7 m/s 719 mmHg 16%
    16:00 +34°C° 0 mm 7 m/s 718 mmHg 16%
    17:00 +33°C° 0 mm 6 m/s 718 mmHg 17%
    18:00 +32°C° 0 mm 6 m/s 719 mmHg 18%
    19:00 +29°C° 0 mm 6 m/s 719 mmHg 19%
    20:00 +28°C° 0 mm 5 m/s 719 mmHg 20%
    21:00 +27°C° 0 mm 6 m/s 719 mmHg 19%
    22:00 +26°C° 0 mm 7 m/s 719 mmHg 18%
    23:00 +24°C° 0 mm 7 m/s 720 mmHg 17%

    9 Décembre, Lundi

    Heure Température Précipitation Vent Pression Humidité
    00:00 +24°C° 0 mm 7 m/s 719 mmHg 18%
    01:00 +23°C° 0 mm 7 m/s 719 mmHg 19%
    02:00 +22°C° 0 mm 7 m/s 719 mmHg 20%
    03:00 +22°C° 0 mm 8 m/s 720 mmHg 22%
    04:00 +21°C° 0 mm 8 m/s 720 mmHg 23%
    05:00 +20°C° 0 mm 8 m/s 720 mmHg 25%
    06:00 +21°C° 0 mm 8 m/s 720 mmHg 24%
    07:00 +21°C° 0 mm 8 m/s 720 mmHg 24%
    08:00 +21°C° 0 mm 8 m/s 721 mmHg 23%
    09:00 +23°C° 0 mm 8 m/s 721 mmHg 21%
    10:00 +27°C° 0 mm 8 m/s 721 mmHg 18%
    11:00 +29°C° 0 mm 7 m/s 721 mmHg 15%
    12:00 +30°C° 0 mm 7 m/s 720 mmHg 14%
    13:00 +33°C° 0 mm 6 m/s 719 mmHg 13%
    14:00 +34°C° 0 mm 6 m/s 719 mmHg 12%
    15:00 +34°C° 0 mm 5 m/s 718 mmHg 12%
    16:00 +34°C° 0 mm 5 m/s 718 mmHg 12%
    17:00 +34°C° 0 mm 4 m/s 718 mmHg 13%
    18:00 +32°C° 0 mm 5 m/s 718 mmHg 13%
    19:00 +29°C° 0 mm 5 m/s 718 mmHg 14%
    20:00 +28°C° 0 mm 5 m/s 719 mmHg 14%
    21:00 +27°C° 0 mm 5 m/s 719 mmHg 15%
    22:00 +26°C° 0 mm 6 m/s 719 mmHg 15%
    23:00 +24°C° 0 mm 6 m/s 719 mmHg 15%

    10 Décembre, Mardi

    Heure Température Précipitation Vent Pression Humidité
    00:00 +23°C° 0 mm 6 m/s 719 mmHg 16%
    01:00 +23°C° 0 mm 6 m/s 719 mmHg 17%
    02:00 +22°C° 0 mm 6 m/s 719 mmHg 18%
    03:00 +21°C° 0 mm 6 m/s 719 mmHg 19%
    04:00 +21°C° 0 mm 6 m/s 719 mmHg 20%
    05:00 +20°C° 0 mm 5 m/s 719 mmHg 21%
    06:00 +21°C° 0 mm 6 m/s 720 mmHg 21%
    07:00 +21°C° 0 mm 6 m/s 720 mmHg 20%
    08:00 +22°C° 0 mm 6 m/s 721 mmHg 20%
    09:00 +24°C° 0 mm 6 m/s 721 mmHg 18%
    10:00 +28°C° 0 mm 6 m/s 721 mmHg 16%
    11:00 +30°C° 0 mm 5 m/s 721 mmHg 14%
    12:00 +32°C° 0 mm 5 m/s 720 mmHg 13%
    13:00 +34°C° 0 mm 4 m/s 719 mmHg 12%
    14:00 +35°C° 0 mm 4 m/s 718 mmHg 12%
    15:00 +35°C° 0 mm 3 m/s 718 mmHg 12%
    16:00 +35°C° 0 mm 3 m/s 718 mmHg 12%
    17:00 +34°C° 0 mm 3 m/s 717 mmHg 12%
    18:00 +33°C° 0 mm 3 m/s 718 mmHg 13%
    19:00 +31°C° 0 mm 3 m/s 718 mmHg 14%
    20:00 +29°C° 0 mm 3 m/s 718 mmHg 15%
    21:00 +28°C° 0 mm 4 m/s 718 mmHg 15%
    22:00 +28°C° 0 mm 4 m/s 719 mmHg 15%
    23:00 +27°C° 0 mm 4 m/s 719 mmHg 15%

    11 Décembre, Mercredi

    Heure Température Précipitation Vent Pression Humidité
    00:00 +26°C° 0 mm 4 m/s 719 mmHg 16%
    01:00 +26°C° 0 mm 4 m/s 718 mmHg 16%
    02:00 +25°C° 0 mm 4 m/s 718 mmHg 16%
    03:00 +23°C° 0 mm 4 m/s 718 mmHg 16%
    04:00 +23°C° 0 mm 4 m/s 718 mmHg 16%
    05:00 +22°C° 0 mm 4 m/s 718 mmHg 16%
    06:00 +23°C° 0 mm 4 m/s 719 mmHg 16%
    07:00 +25°C° 0 mm 5 m/s 719 mmHg 16%
    08:00 +25°C° 0 mm 5 m/s 720 mmHg 15%
    09:00 +28°C° 0 mm 5 m/s 720 mmHg 14%
    10:00 +30°C° 0 mm 5 m/s 720 mmHg 13%
    11:00 +33°C° 0 mm 5 m/s 720 mmHg 11%
    12:00 +34°C° 0 mm 4 m/s 719 mmHg 11%
    13:00 +35°C° 0 mm 3 m/s 719 mmHg 11%
    14:00 +36°C° 0 mm 2 m/s 718 mmHg 11%
    15:00 +35°C° 0 mm 1 m/s 717 mmHg 12%
    16:00 +35°C° 0 mm 1 m/s 717 mmHg 13%
    17:00 +35°C° 0 mm 1 m/s 717 mmHg 14%
    18:00 +34°C° 0 mm 1 m/s 717 mmHg 15%
    19:00 +32°C° 0 mm 2 m/s 717 mmHg 15%
    20:00 +31°C° 0 mm 2 m/s 717 mmHg 16%
    21:00 +30°C° 0 mm 2 m/s 718 mmHg 16%
    22:00 +30°C° 0 mm 2 m/s 718 mmHg 17%
    23:00 +29°C° 0 mm 3 m/s 718 mmHg 17%
    Voir plus